Showing default

IRIDIUM 103, 41918

Orbit data source: Space-Track

IRIDIUM 103, 41918 is a payload satellite owned by Iridium (US) in LEO that was launched on Sat, 14 Jan 2017 UTC via an FALCON 9 launch vehicle from the Air Force Western Test Range (AFWTR). Payload-class satellites include a variety of spacecraft equipped with specific instruments for various scientific and technological missions. These include communications satellites like Starlink; space stations such as the ISS; scientific satellites like the Hubble; Earth observation satellites from companies like Planet Labs, Umbra, and HawkEye 360; GPS; miniature CubeSats for education and research; and military/defense satellites.

Loading next visibility...
Identifier
41918, 2017-003B
Orbit
LEO
Country
Flag of USUS
Related business
Manufacturer
OATK SSG Gilbert
Mission
Operational Commercial Communications
Bus & Motor
ELITEBUS, Unknown motor
Mass
860 kg wet, 700 kg dry
Launch date (UTC)
2017-01-14 (9 years ago)
Launch vehicle
FALCON 9
Launch site
Air Force Western Test Range (AFWTR)
Object type
Payload
Rocket body
Debris
Shape & HBR
Trap Box + 2 Pan, 4.8 m
Radar Cross Section
10.154 m², Large (>1 m²)

Expand to show TLE details & history
Last TLE update: 1 day ago

TLE from 1 day ago
0 IRIDIUM 103
1 41918U 17003B   25301.38154915  .00000224  00000-0  73055-4 0  9993
2 41918  86.4030 185.2853 0002402  74.9843 285.1618 14.34215887460005
Epoch: 2025-10-28T09:09Z
TLE epoch observation values (Epoch: 2025-10-28T09:09:25.846Z)
Latitude
-0.00008°
Longitude
10.95775°
Altitude
780.275 km
Speed
7.464 km/s
True Right ascension
12h 21m 08s
True Declination
0° 00' 00"
Sunlit
Object was in daylight at epoch
Visualization orbit readout
Latitude
Unknown
Longitude
Unknown
Altitude
Unknown
Speed
Unknown
Apparent Right ascension
Unknown
Apparent Declination
Unknown
Sunlit
N/A
Visualization observer readout
Local Sidereal Time
04:28:40
Azimuth
Unknown
Elevation
Unknown
Doppler factor
Unknown
Orbital elements
Apogee altitude
776.356 km
Perigee altitude
772.92 km
Semi-major axis
7,152.775 km
Eccentricity
0.00024
Inclination
86.403°
RAAN
185.2853°
Arg. of periapsis
74.9843°
True anomaly
285.13523°
Mean anomaly
285.1618°
Eccentric anomaly
285.14852°
Mean motion
3.58783 °/min
Orbital period
100.34 mins
BSTAR
0.000073055
Loading maneuver chart data...
Computing Atmospheric mass density...
Loading historical data...
Loading historical data...
Loading historical data...
Loading historical data...
Loading historical data...
Loading historical data...
Loading historical data...

Documentation

Showing up to 5 results
|